Year,Month,Day,Hour,Minute,Value (Times are PST for temperature in C)
2009,07,24,00,00,14.70
2009,07,24,00,01,14.70
2009,07,24,00,02,14.70
2009,07,24,00,03,14.70
2009,07,24,00,04,14.70
2009,07,24,00,05,14.70
2009,07,24,00,06,14.70
2009,07,24,00,07,14.70
2009,07,24,00,08,14.70
2009,07,24,00,09,14.70
2009,07,24,00,10,14.70
2009,07,24,00,11,14.80
2009,07,24,00,12,14.80
2009,07,24,00,13,14.80
2009,07,24,00,14,14.80
2009,07,24,00,15,14.70
2009,07,24,00,16,14.70
2009,07,24,00,17,14.70
2009,07,24,00,18,14.70
2009,07,24,00,19,14.70
2009,07,24,00,20,14.70
2009,07,24,00,21,14.70
2009,07,24,00,22,14.70
2009,07,24,00,23,14.70
2009,07,24,00,24,14.70
2009,07,24,00,25,14.70
2009,07,24,00,26,14.70
2009,07,24,00,27,14.60
2009,07,24,00,28,14.60
2009,07,24,00,29,14.60
2009,07,24,00,30,14.60
2009,07,24,00,31,14.60
2009,07,24,00,32,14.70
2009,07,24,00,33,14.70
2009,07,24,00,34,14.80
2009,07,24,00,35,14.80
2009,07,24,00,36,14.80
2009,07,24,00,37,14.80
2009,07,24,00,38,14.80
2009,07,24,00,39,14.80
2009,07,24,00,40,14.70
2009,07,24,00,41,14.70
2009,07,24,00,42,14.70
2009,07,24,00,43,14.70
2009,07,24,00,44,14.70
2009,07,24,00,45,14.80
2009,07,24,00,46,14.80
2009,07,24,00,47,14.80
2009,07,24,00,48,14.90
2009,07,24,00,49,14.90
2009,07,24,00,50,14.90
2009,07,24,00,51,15.00
2009,07,24,00,52,15.00
2009,07,24,00,53,15.00
2009,07,24,00,54,15.00
2009,07,24,00,55,15.00
2009,07,24,00,56,15.00
2009,07,24,00,57,15.00
2009,07,24,00,58,15.00
2009,07,24,00,59,15.00
2009,07,24,01,00,15.00
2009,07,24,01,01,15.00
2009,07,24,01,02,15.00
2009,07,24,01,03,15.00
2009,07,24,01,04,15.00
2009,07,24,01,05,14.90
2009,07,24,01,06,14.90
2009,07,24,01,07,14.80
2009,07,24,01,08,14.80
2009,07,24,01,09,14.80
2009,07,24,01,10,14.70
2009,07,24,01,11,14.70
2009,07,24,01,12,14.70
2009,07,24,01,13,14.60
2009,07,24,01,14,14.60
2009,07,24,01,15,14.60
2009,07,24,01,16,14.50
2009,07,24,01,17,14.50
2009,07,24,01,18,14.50
2009,07,24,01,19,14.40
2009,07,24,01,20,14.40
2009,07,24,01,21,14.30
2009,07,24,01,22,14.30
2009,07,24,01,23,14.20
2009,07,24,01,24,14.20
2009,07,24,01,25,14.20
2009,07,24,01,26,14.20
2009,07,24,01,27,14.30
2009,07,24,01,28,14.20
2009,07,24,01,29,14.20
2009,07,24,01,30,14.20
2009,07,24,01,31,14.20
2009,07,24,01,32,14.20
2009,07,24,01,33,14.20
2009,07,24,01,34,14.20
2009,07,24,01,35,14.20
2009,07,24,01,36,14.20
2009,07,24,01,37,14.30
2009,07,24,01,38,14.30
2009,07,24,01,39,14.30
2009,07,24,01,40,14.30
2009,07,24,01,41,14.30
2009,07,24,01,42,14.30
2009,07,24,01,43,14.30
2009,07,24,01,44,14.40
2009,07,24,01,45,14.40
2009,07,24,01,46,14.40
2009,07,24,01,47,14.40
2009,07,24,01,48,14.40
2009,07,24,01,49,14.40
2009,07,24,01,50,14.30
2009,07,24,01,51,14.30
2009,07,24,01,52,14.30
2009,07,24,01,53,14.40
2009,07,24,01,54,14.40
2009,07,24,01,55,14.40
2009,07,24,01,56,14.40
2009,07,24,01,57,14.40
2009,07,24,01,58,14.40
2009,07,24,01,59,14.30
2009,07,24,02,00,14.30
2009,07,24,02,01,14.30
2009,07,24,02,02,14.30
2009,07,24,02,03,14.30
2009,07,24,02,04,14.30
2009,07,24,02,05,14.30
2009,07,24,02,06,14.20
2009,07,24,02,07,14.20
2009,07,24,02,08,14.20
2009,07,24,02,09,14.20
2009,07,24,02,10,14.20
2009,07,24,02,11,14.10
2009,07,24,02,12,14.10
2009,07,24,02,13,14.00
2009,07,24,02,14,14.00
2009,07,24,02,15,14.00
2009,07,24,02,16,13.90
2009,07,24,02,17,13.90
2009,07,24,02,18,13.90
2009,07,24,02,19,13.90
2009,07,24,02,20,13.90
2009,07,24,02,21,13.90
2009,07,24,02,22,13.80
2009,07,24,02,23,13.80
2009,07,24,02,24,13.80
2009,07,24,02,25,13.90
2009,07,24,02,26,13.90
2009,07,24,02,27,14.00
2009,07,24,02,28,14.00
2009,07,24,02,29,14.10
2009,07,24,02,30,14.10
2009,07,24,02,31,14.10
2009,07,24,02,32,14.10
2009,07,24,02,33,14.10
2009,07,24,02,34,14.00
2009,07,24,02,35,14.00
2009,07,24,02,36,14.10
2009,07,24,02,37,14.10
2009,07,24,02,38,14.10
2009,07,24,02,39,14.10
2009,07,24,02,40,14.10
2009,07,24,02,41,14.10
2009,07,24,02,42,14.10
2009,07,24,02,43,14.10
2009,07,24,02,44,14.10
2009,07,24,02,45,14.10
2009,07,24,02,46,14.10
2009,07,24,02,47,14.20
2009,07,24,02,48,14.20
2009,07,24,02,49,14.20
2009,07,24,02,50,14.20
2009,07,24,02,51,14.20
2009,07,24,02,52,14.20
2009,07,24,02,53,14.20
2009,07,24,02,54,14.20
2009,07,24,02,55,14.20
2009,07,24,02,56,14.20
2009,07,24,02,57,14.20
2009,07,24,02,58,14.20
2009,07,24,02,59,14.20
2009,07,24,03,00,14.20
2009,07,24,03,01,14.10
2009,07,24,03,02,14.10
2009,07,24,03,03,14.10
2009,07,24,03,04,14.10
2009,07,24,03,05,14.10
2009,07,24,03,06,14.20
2009,07,24,03,07,14.20
2009,07,24,03,08,14.20
2009,07,24,03,09,14.30
2009,07,24,03,10,14.30
2009,07,24,03,11,14.30
2009,07,24,03,12,14.30
2009,07,24,03,13,14.20
2009,07,24,03,14,14.20
2009,07,24,03,15,14.20
2009,07,24,03,16,14.20
2009,07,24,03,17,14.20
2009,07,24,03,18,14.20
2009,07,24,03,19,14.20
2009,07,24,03,20,14.20
2009,07,24,03,21,14.20
2009,07,24,03,22,14.20
2009,07,24,03,23,14.20
2009,07,24,03,24,14.20
2009,07,24,03,25,14.30
2009,07,24,03,26,14.30
2009,07,24,03,27,14.30
2009,07,24,03,28,14.40
2009,07,24,03,29,14.40
2009,07,24,03,30,14.40
2009,07,24,03,31,14.50
2009,07,24,03,32,14.50
2009,07,24,03,33,14.50
2009,07,24,03,34,14.50
2009,07,24,03,35,14.50
2009,07,24,03,36,14.50
2009,07,24,03,37,14.50
2009,07,24,03,38,14.40
2009,07,24,03,39,14.40
2009,07,24,03,40,14.40
2009,07,24,03,41,14.30
2009,07,24,03,42,14.20
2009,07,24,03,43,14.20
2009,07,24,03,44,14.20
2009,07,24,03,45,14.20
2009,07,24,03,46,14.10
2009,07,24,03,47,14.10
2009,07,24,03,48,14.10
2009,07,24,03,49,14.10
2009,07,24,03,50,14.10
2009,07,24,03,51,14.10
2009,07,24,03,52,14.10
2009,07,24,03,53,14.10
2009,07,24,03,54,14.10
2009,07,24,03,55,14.00
2009,07,24,03,56,14.00
2009,07,24,03,57,14.00
2009,07,24,03,58,14.00
2009,07,24,03,59,14.00
2009,07,24,04,00,14.10
2009,07,24,04,01,14.10
2009,07,24,04,02,14.10
2009,07,24,04,03,14.10
2009,07,24,04,04,14.10
2009,07,24,04,05,14.10
2009,07,24,04,06,14.10
2009,07,24,04,07,14.10
2009,07,24,04,08,14.10
2009,07,24,04,09,14.10
2009,07,24,04,10,14.10
2009,07,24,04,11,14.10
2009,07,24,04,12,14.20
2009,07,24,04,13,14.20
2009,07,24,04,14,14.20
2009,07,24,04,15,14.20
2009,07,24,04,16,14.20
2009,07,24,04,17,14.20
2009,07,24,04,18,14.20
2009,07,24,04,19,14.20
2009,07,24,04,20,14.20
2009,07,24,04,21,14.20
2009,07,24,04,22,14.20
2009,07,24,04,23,14.20
2009,07,24,04,24,14.20
2009,07,24,04,25,14.20
2009,07,24,04,26,14.20
2009,07,24,04,27,14.20
2009,07,24,04,28,14.20
2009,07,24,04,29,14.10
2009,07,24,04,30,14.10
2009,07,24,04,31,14.10
2009,07,24,04,32,14.10
2009,07,24,04,33,14.00
2009,07,24,04,34,14.00
2009,07,24,04,35,14.00
2009,07,24,04,36,13.90
2009,07,24,04,37,13.90
2009,07,24,04,38,13.90
2009,07,24,04,39,13.80
2009,07,24,04,40,13.80
2009,07,24,04,41,13.80
2009,07,24,04,42,13.80
2009,07,24,04,43,13.80
2009,07,24,04,44,13.80
2009,07,24,04,45,13.80
2009,07,24,04,46,13.80
2009,07,24,04,47,13.80
2009,07,24,04,48,13.90
2009,07,24,04,49,13.90
2009,07,24,04,50,14.00
2009,07,24,04,51,14.00
2009,07,24,04,52,14.00
2009,07,24,04,53,14.00
2009,07,24,04,54,14.00
2009,07,24,04,55,14.00
2009,07,24,04,56,14.00
2009,07,24,04,57,14.00
2009,07,24,04,58,14.00
2009,07,24,04,59,14.00
2009,07,24,05,00,14.00
2009,07,24,05,01,14.00
2009,07,24,05,02,14.00
2009,07,24,05,03,13.90
2009,07,24,05,04,13.90
2009,07,24,05,05,13.90
2009,07,24,05,06,13.90
2009,07,24,05,07,13.90
2009,07,24,05,08,13.90
2009,07,24,05,09,13.90
2009,07,24,05,10,13.90
2009,07,24,05,11,13.90
2009,07,24,05,12,13.90
2009,07,24,05,13,13.80
2009,07,24,05,14,13.80
2009,07,24,05,15,13.80
2009,07,24,05,16,13.80
2009,07,24,05,17,13.80
2009,07,24,05,18,13.80
2009,07,24,05,19,13.80
2009,07,24,05,20,13.90
2009,07,24,05,21,13.90
2009,07,24,05,22,13.90
2009,07,24,05,23,13.90
2009,07,24,05,24,13.80
2009,07,24,05,25,13.80
2009,07,24,05,26,13.80
2009,07,24,05,27,13.70
2009,07,24,05,28,13.70
2009,07,24,05,29,13.60
2009,07,24,05,30,13.60
2009,07,24,05,31,13.60
2009,07,24,05,32,13.60
2009,07,24,05,33,13.60
2009,07,24,05,34,13.60
2009,07,24,05,35,13.60
2009,07,24,05,36,13.60
2009,07,24,05,37,13.60
2009,07,24,05,38,13.70
2009,07,24,05,39,13.70
2009,07,24,05,40,13.70
2009,07,24,05,41,13.70
2009,07,24,05,42,13.70
2009,07,24,05,43,13.60
2009,07,24,05,44,13.60
2009,07,24,05,45,13.60
2009,07,24,05,46,13.60
2009,07,24,05,47,13.60
2009,07,24,05,48,13.60
2009,07,24,05,49,13.60
2009,07,24,05,50,13.60
2009,07,24,05,51,13.60
2009,07,24,05,52,13.60
2009,07,24,05,53,13.60
2009,07,24,05,54,13.60
2009,07,24,05,55,13.60
2009,07,24,05,56,13.60
2009,07,24,05,57,13.50
2009,07,24,05,58,13.50
2009,07,24,05,59,13.50
2009,07,24,06,00,13.40
2009,07,24,06,01,13.40
2009,07,24,06,02,13.40
2009,07,24,06,03,13.50
2009,07,24,06,04,13.50
2009,07,24,06,05,13.50
2009,07,24,06,06,13.60
2009,07,24,06,07,13.60
2009,07,24,06,08,13.60
2009,07,24,06,09,13.60
2009,07,24,06,10,13.60
2009,07,24,06,11,13.60
2009,07,24,06,12,13.70
2009,07,24,06,13,13.70
2009,07,24,06,14,13.70
2009,07,24,06,15,13.70
2009,07,24,06,16,13.70
2009,07,24,06,17,13.80
2009,07,24,06,18,13.80
2009,07,24,06,19,13.90
2009,07,24,06,20,13.90
2009,07,24,06,21,14.00
2009,07,24,06,22,14.00
2009,07,24,06,23,14.10
2009,07,24,06,24,14.20
2009,07,24,06,25,14.20
2009,07,24,06,26,14.20
2009,07,24,06,27,14.30
2009,07,24,06,28,14.30
2009,07,24,06,29,14.30
2009,07,24,06,30,14.40
2009,07,24,06,31,14.40
2009,07,24,06,32,14.40
2009,07,24,06,33,14.40
2009,07,24,06,34,14.40
2009,07,24,06,35,14.40
2009,07,24,06,36,14.40
2009,07,24,06,37,14.40
2009,07,24,06,38,14.40
2009,07,24,06,39,14.40
2009,07,24,06,40,14.50
2009,07,24,06,41,14.50
2009,07,24,06,42,14.50
2009,07,24,06,43,14.50
2009,07,24,06,44,14.50
2009,07,24,06,45,14.50
2009,07,24,06,46,14.50
2009,07,24,06,47,14.50
2009,07,24,06,48,14.60
2009,07,24,06,49,14.60
2009,07,24,06,50,14.60
2009,07,24,06,51,14.70
2009,07,24,06,52,14.70
2009,07,24,06,53,14.80
2009,07,24,06,54,14.80
2009,07,24,06,55,14.90
2009,07,24,06,56,14.90
2009,07,24,06,57,15.00
2009,07,24,06,58,15.00
2009,07,24,06,59,15.00
2009,07,24,07,00,15.00
2009,07,24,07,01,15.00
2009,07,24,07,02,15.00
2009,07,24,07,03,15.10
2009,07,24,07,04,15.20
2009,07,24,07,05,15.20
2009,07,24,07,06,15.20
2009,07,24,07,07,15.30
2009,07,24,07,08,15.30
2009,07,24,07,09,15.30
2009,07,24,07,10,15.30
2009,07,24,07,11,15.40
2009,07,24,07,12,15.40
2009,07,24,07,13,15.40
2009,07,24,07,14,15.40
2009,07,24,07,15,15.40
2009,07,24,07,16,15.40
2009,07,24,07,17,15.40
2009,07,24,07,18,15.40
2009,07,24,07,19,15.40
2009,07,24,07,20,15.40
2009,07,24,07,21,15.40
2009,07,24,07,22,15.40
2009,07,24,07,23,15.40
2009,07,24,07,24,15.50
2009,07,24,07,25,15.50
2009,07,24,07,26,15.50
2009,07,24,07,27,15.50
2009,07,24,07,28,15.50
2009,07,24,07,29,15.50
2009,07,24,07,30,15.50
2009,07,24,07,31,15.50
2009,07,24,07,32,15.40
2009,07,24,07,33,15.40
2009,07,24,07,34,15.40
2009,07,24,07,35,15.40
2009,07,24,07,36,15.40
2009,07,24,07,37,15.50
2009,07,24,07,38,15.50
2009,07,24,07,39,15.50
2009,07,24,07,40,15.50
2009,07,24,07,41,15.50
2009,07,24,07,42,15.60
2009,07,24,07,43,15.60
2009,07,24,07,44,15.60
2009,07,24,07,45,15.60
2009,07,24,07,46,15.60
2009,07,24,07,47,15.60
2009,07,24,07,48,15.60
2009,07,24,07,49,15.60
2009,07,24,07,50,15.70
2009,07,24,07,51,15.70
2009,07,24,07,52,15.70
2009,07,24,07,53,15.70
2009,07,24,07,54,15.70
2009,07,24,07,55,15.70
2009,07,24,07,56,15.70
2009,07,24,07,57,15.80
2009,07,24,07,58,15.80
2009,07,24,07,59,15.80
2009,07,24,08,00,15.80
2009,07,24,08,01,15.80
2009,07,24,08,02,15.90
2009,07,24,08,03,15.90
2009,07,24,08,04,15.90
2009,07,24,08,05,16.00
2009,07,24,08,06,16.00
2009,07,24,08,07,16.10
2009,07,24,08,08,16.10
2009,07,24,08,09,16.10
2009,07,24,08,10,16.20
2009,07,24,08,11,16.20
2009,07,24,08,12,16.20
2009,07,24,08,13,16.20
2009,07,24,08,14,16.20
2009,07,24,08,15,16.30
2009,07,24,08,16,16.30
2009,07,24,08,17,16.30
2009,07,24,08,18,16.30
2009,07,24,08,19,16.40
2009,07,24,08,20,16.40
2009,07,24,08,21,16.40
2009,07,24,08,22,16.40
2009,07,24,08,23,16.50
2009,07,24,08,24,16.50
2009,07,24,08,25,16.60
2009,07,24,08,26,16.60
2009,07,24,08,27,16.60
2009,07,24,08,28,16.60
2009,07,24,08,29,16.60
2009,07,24,08,30,16.70
2009,07,24,08,31,16.70
2009,07,24,08,32,16.70
2009,07,24,08,33,16.80
2009,07,24,08,34,16.80
2009,07,24,08,35,16.80
2009,07,24,08,36,16.80
2009,07,24,08,37,16.80
2009,07,24,08,38,16.80
2009,07,24,08,39,16.80
2009,07,24,08,40,16.80
2009,07,24,08,41,16.80
2009,07,24,08,42,16.80
2009,07,24,08,43,16.80
2009,07,24,08,44,16.80
2009,07,24,08,45,16.90
2009,07,24,08,46,16.90
2009,07,24,08,47,16.90
2009,07,24,08,48,16.90
2009,07,24,08,49,17.00
2009,07,24,08,50,17.00
2009,07,24,08,51,17.10
2009,07,24,08,52,17.20
2009,07,24,08,53,17.20
2009,07,24,08,54,17.20
2009,07,24,08,55,17.20
2009,07,24,08,56,17.20
2009,07,24,08,57,17.20
2009,07,24,08,58,17.20
2009,07,24,08,59,17.20
2009,07,24,09,00,17.20
2009,07,24,09,01,17.20
2009,07,24,09,02,17.20
2009,07,24,09,03,17.20
2009,07,24,09,04,17.30
2009,07,24,09,05,17.30
2009,07,24,09,06,17.30
2009,07,24,09,07,17.30
2009,07,24,09,08,17.30
2009,07,24,09,09,17.30
2009,07,24,09,10,17.30
2009,07,24,09,11,17.30
2009,07,24,09,12,17.40
2009,07,24,09,13,17.40
2009,07,24,09,14,17.50
2009,07,24,09,15,17.50
2009,07,24,09,16,17.60
2009,07,24,09,17,17.60
2009,07,24,09,18,17.60
2009,07,24,09,19,17.60
2009,07,24,09,20,17.70
2009,07,24,09,21,17.70
2009,07,24,09,22,17.70
2009,07,24,09,23,17.70
2009,07,24,09,24,17.70
2009,07,24,09,25,17.70
2009,07,24,09,26,17.70
2009,07,24,09,27,17.80
2009,07,24,09,28,17.80
2009,07,24,09,29,17.80
2009,07,24,09,30,17.80
2009,07,24,09,31,17.90
2009,07,24,09,32,17.90
2009,07,24,09,33,18.00
2009,07,24,09,34,18.00
2009,07,24,09,35,18.10
2009,07,24,09,36,18.10
2009,07,24,09,37,18.20
2009,07,24,09,38,18.20
2009,07,24,09,39,18.30
2009,07,24,09,40,18.30
2009,07,24,09,41,18.20
2009,07,24,09,42,18.20
2009,07,24,09,43,18.10
2009,07,24,09,44,18.10
2009,07,24,09,45,18.10
2009,07,24,09,46,18.10
2009,07,24,09,47,18.20
2009,07,24,09,48,18.20
2009,07,24,09,49,18.30
2009,07,24,09,50,18.30
2009,07,24,09,51,18.30
2009,07,24,09,52,18.30
2009,07,24,09,53,18.30
2009,07,24,09,54,18.20
2009,07,24,09,55,18.20
2009,07,24,09,56,18.20
2009,07,24,09,57,18.20
2009,07,24,09,58,18.20
2009,07,24,09,59,18.20
2009,07,24,10,00,18.20
2009,07,24,10,01,18.30
2009,07,24,10,02,18.30
2009,07,24,10,03,18.30
2009,07,24,10,04,18.40
2009,07,24,10,05,18.40
2009,07,24,10,06,18.40
2009,07,24,10,07,18.40
2009,07,24,10,08,18.40
2009,07,24,10,09,18.40
2009,07,24,10,10,18.40
2009,07,24,10,11,18.50
2009,07,24,10,12,18.60
2009,07,24,10,13,18.60
2009,07,24,10,14,18.70
2009,07,24,10,15,18.70
2009,07,24,10,16,18.70
2009,07,24,10,17,18.70
2009,07,24,10,18,18.80
2009,07,24,10,19,18.80
2009,07,24,10,20,18.80
2009,07,24,10,21,18.80
2009,07,24,10,22,18.70
2009,07,24,10,23,18.70
2009,07,24,10,24,18.60
2009,07,24,10,25,18.50
2009,07,24,10,26,18.40
2009,07,24,10,27,18.40
2009,07,24,10,28,18.40
2009,07,24,10,29,18.40
2009,07,24,10,30,18.40
2009,07,24,10,31,18.40
2009,07,24,10,32,18.40
2009,07,24,10,33,18.40
2009,07,24,10,34,18.50
2009,07,24,10,35,18.50
2009,07,24,10,36,18.60
2009,07,24,10,37,18.70
2009,07,24,10,38,18.80
2009,07,24,10,39,18.80
2009,07,24,10,40,18.90
2009,07,24,10,41,18.90
2009,07,24,10,42,19.00
2009,07,24,10,43,19.10
2009,07,24,10,44,19.20
2009,07,24,10,45,19.20
2009,07,24,10,46,19.20
2009,07,24,10,47,19.30
2009,07,24,10,48,19.30
2009,07,24,10,49,19.30
2009,07,24,10,50,19.30
2009,07,24,10,51,19.20
2009,07,24,10,52,19.00
2009,07,24,10,53,18.90
2009,07,24,10,54,18.70
2009,07,24,10,55,18.60
2009,07,24,10,56,18.60
2009,07,24,10,57,18.60
2009,07,24,10,58,18.60
2009,07,24,10,59,18.70
2009,07,24,11,00,18.70
2009,07,24,11,01,18.70
2009,07,24,11,02,18.70
2009,07,24,11,03,18.80
2009,07,24,11,04,19.00
2009,07,24,11,05,19.10
2009,07,24,11,06,19.20
2009,07,24,11,07,19.30
2009,07,24,11,08,19.40
2009,07,24,11,09,19.50
2009,07,24,11,10,19.60
2009,07,24,11,11,19.60
2009,07,24,11,12,19.50
2009,07,24,11,13,19.50
2009,07,24,11,14,19.50
2009,07,24,11,15,19.50
2009,07,24,11,16,19.60
2009,07,24,11,17,19.60
2009,07,24,11,18,19.60
2009,07,24,11,19,19.70
2009,07,24,11,20,19.60
2009,07,24,11,21,19.50
2009,07,24,11,22,19.50
2009,07,24,11,23,19.40
2009,07,24,11,24,19.40
2009,07,24,11,25,19.40
2009,07,24,11,26,19.40
2009,07,24,11,27,19.50
2009,07,24,11,28,19.70
2009,07,24,11,29,19.80
2009,07,24,11,30,19.90
2009,07,24,11,31,20.00
2009,07,24,11,32,20.00
2009,07,24,11,33,20.00
2009,07,24,11,34,20.00
2009,07,24,11,35,20.10
2009,07,24,11,36,20.00
2009,07,24,11,37,19.90
2009,07,24,11,38,19.70
2009,07,24,11,39,19.50
2009,07,24,11,40,19.40
2009,07,24,11,41,19.30
2009,07,24,11,42,19.20
2009,07,24,11,43,19.20
2009,07,24,11,44,19.20
2009,07,24,11,45,19.20
2009,07,24,11,46,19.20
2009,07,24,11,47,19.20
2009,07,24,11,48,19.30
2009,07,24,11,49,19.40
2009,07,24,11,50,19.70
2009,07,24,11,51,19.80
2009,07,24,11,52,19.80
2009,07,24,11,53,19.70
2009,07,24,11,54,19.60
2009,07,24,11,55,19.50
2009,07,24,11,56,19.40
2009,07,24,11,57,19.30
2009,07,24,11,58,19.30
2009,07,24,11,59,19.40
2009,07,24,12,00,19.40
2009,07,24,12,01,19.50
2009,07,24,12,02,19.60
2009,07,24,12,03,19.60
2009,07,24,12,04,19.70
2009,07,24,12,05,19.90
2009,07,24,12,06,20.10
2009,07,24,12,07,20.30
2009,07,24,12,08,20.40
2009,07,24,12,09,20.40
2009,07,24,12,10,20.40
2009,07,24,12,11,20.20
2009,07,24,12,12,20.00
2009,07,24,12,13,20.00
2009,07,24,12,14,20.00
2009,07,24,12,15,20.10
2009,07,24,12,16,20.00
2009,07,24,12,17,19.90
2009,07,24,12,18,19.90
2009,07,24,12,19,19.80
2009,07,24,12,20,19.80
2009,07,24,12,21,19.80
2009,07,24,12,22,19.90
2009,07,24,12,23,20.00
2009,07,24,12,24,20.10
2009,07,24,12,25,20.20
2009,07,24,12,26,20.20
2009,07,24,12,27,20.20
2009,07,24,12,28,20.20
2009,07,24,12,29,20.20
2009,07,24,12,30,20.20
2009,07,24,12,31,20.30
2009,07,24,12,32,20.30
2009,07,24,12,33,20.40
2009,07,24,12,34,20.40
2009,07,24,12,35,20.50
2009,07,24,12,36,20.50
2009,07,24,12,37,20.60
2009,07,24,12,38,20.60
2009,07,24,12,39,20.50
2009,07,24,12,40,20.40
2009,07,24,12,41,20.40
2009,07,24,12,42,20.50
2009,07,24,12,43,20.50
2009,07,24,12,44,20.60
2009,07,24,12,45,20.50
2009,07,24,12,46,20.50
2009,07,24,12,47,20.50
2009,07,24,12,48,20.50
2009,07,24,12,49,20.40
2009,07,24,12,50,20.40
2009,07,24,12,51,20.40
2009,07,24,12,52,20.50
2009,07,24,12,53,20.60
2009,07,24,12,54,20.60
2009,07,24,12,55,20.80
2009,07,24,12,56,20.90
2009,07,24,12,57,20.90
2009,07,24,12,58,21.00
2009,07,24,12,59,21.10
2009,07,24,13,00,21.20
2009,07,24,13,01,21.10
2009,07,24,13,02,21.00
2009,07,24,13,03,20.80
2009,07,24,13,04,20.60
2009,07,24,13,05,20.60
2009,07,24,13,06,20.60
2009,07,24,13,07,20.60
2009,07,24,13,08,20.50
2009,07,24,13,09,20.40
2009,07,24,13,10,20.40
2009,07,24,13,11,20.40
2009,07,24,13,12,20.40
2009,07,24,13,13,20.30
2009,07,24,13,14,20.40
2009,07,24,13,15,20.40
2009,07,24,13,16,20.40
2009,07,24,13,17,20.30
2009,07,24,13,18,20.40
2009,07,24,13,19,20.40
2009,07,24,13,20,20.40
2009,07,24,13,21,20.40
2009,07,24,13,22,20.40
2009,07,24,13,23,20.50
2009,07,24,13,24,20.60
2009,07,24,13,25,20.70
2009,07,24,13,26,20.80
2009,07,24,13,27,20.90
2009,07,24,13,28,20.90
2009,07,24,13,29,20.90
2009,07,24,13,30,20.90
2009,07,24,13,31,20.90
2009,07,24,13,32,20.80
2009,07,24,13,33,20.90
2009,07,24,13,34,21.00
2009,07,24,13,35,21.00
2009,07,24,13,36,21.00
2009,07,24,13,37,21.10
2009,07,24,13,38,21.00
2009,07,24,13,39,21.00
2009,07,24,13,40,20.90
2009,07,24,13,41,20.80
2009,07,24,13,42,20.80
2009,07,24,13,43,20.80
2009,07,24,13,44,20.80
2009,07,24,13,45,20.80
2009,07,24,13,46,20.80
2009,07,24,13,47,20.80
2009,07,24,13,48,20.80
2009,07,24,13,49,20.80
2009,07,24,13,50,20.90
2009,07,24,13,51,21.00
2009,07,24,13,52,20.90
2009,07,24,13,53,20.90
2009,07,24,13,54,20.90
2009,07,24,13,55,20.90
2009,07,24,13,56,20.90
2009,07,24,13,57,20.80
2009,07,24,13,58,20.80
2009,07,24,13,59,20.80
2009,07,24,14,00,20.70
2009,07,24,14,01,20.70
2009,07,24,14,02,20.70
2009,07,24,14,03,20.70
2009,07,24,14,04,20.80
2009,07,24,14,05,20.80
2009,07,24,14,06,20.90
2009,07,24,14,07,20.80
2009,07,24,14,08,20.70
2009,07,24,14,09,20.70
2009,07,24,14,10,20.80
2009,07,24,14,11,20.90
2009,07,24,14,12,20.90
2009,07,24,14,13,20.90
2009,07,24,14,14,20.90
2009,07,24,14,15,21.00
2009,07,24,14,16,21.10
2009,07,24,14,17,21.20
2009,07,24,14,18,21.40
2009,07,24,14,19,21.50
2009,07,24,14,20,21.60
2009,07,24,14,21,21.60
2009,07,24,14,22,21.50
2009,07,24,14,23,21.50
2009,07,24,14,24,21.40
2009,07,24,14,25,21.50
2009,07,24,14,26,21.50
2009,07,24,14,27,21.50
2009,07,24,14,28,21.60
2009,07,24,14,29,21.60
2009,07,24,14,30,21.60
2009,07,24,14,31,21.60
2009,07,24,14,32,21.70
2009,07,24,14,33,21.70
2009,07,24,14,34,21.60
2009,07,24,14,35,21.60
2009,07,24,14,36,21.60
2009,07,24,14,37,21.60
2009,07,24,14,38,21.60
2009,07,24,14,39,21.60
2009,07,24,14,40,21.70
2009,07,24,14,41,21.80
2009,07,24,14,42,21.80
2009,07,24,14,43,21.70
2009,07,24,14,44,21.60
2009,07,24,14,45,21.50
2009,07,24,14,46,21.40
2009,07,24,14,47,21.40
2009,07,24,14,48,21.40
2009,07,24,14,49,21.40
2009,07,24,14,50,21.40
2009,07,24,14,51,21.40
2009,07,24,14,52,21.50
2009,07,24,14,53,21.50
2009,07,24,14,54,21.50
2009,07,24,14,55,21.50
2009,07,24,14,56,21.60
2009,07,24,14,57,21.70
2009,07,24,14,58,21.80
2009,07,24,14,59,21.90
2009,07,24,15,00,21.90
2009,07,24,15,01,21.90
2009,07,24,15,02,21.90
2009,07,24,15,03,21.80
2009,07,24,15,04,21.80
2009,07,24,15,05,21.80
2009,07,24,15,06,21.70
2009,07,24,15,07,21.70
2009,07,24,15,08,21.60
2009,07,24,15,09,21.60
2009,07,24,15,10,21.60
2009,07,24,15,11,21.70
2009,07,24,15,12,21.80
2009,07,24,15,13,21.80
2009,07,24,15,14,21.80
2009,07,24,15,15,21.90
2009,07,24,15,16,21.90
2009,07,24,15,17,22.00
2009,07,24,15,18,22.10
2009,07,24,15,19,22.20
2009,07,24,15,20,22.20
2009,07,24,15,21,22.20
2009,07,24,15,22,22.10
2009,07,24,15,23,22.10
2009,07,24,15,24,22.10
2009,07,24,15,25,22.20
2009,07,24,15,26,22.30
2009,07,24,15,27,22.40
2009,07,24,15,28,22.50
2009,07,24,15,29,22.50
2009,07,24,15,30,22.40
2009,07,24,15,31,22.40
2009,07,24,15,32,22.40
2009,07,24,15,33,22.40
2009,07,24,15,34,22.50
2009,07,24,15,35,22.60
2009,07,24,15,36,22.60
2009,07,24,15,37,22.70
2009,07,24,15,38,22.60
2009,07,24,15,39,22.60
2009,07,24,15,40,22.60
2009,07,24,15,41,22.50
2009,07,24,15,42,22.50
2009,07,24,15,43,22.60
2009,07,24,15,44,22.60
2009,07,24,15,45,22.70
2009,07,24,15,46,22.80
2009,07,24,15,47,22.80
2009,07,24,15,48,22.80
2009,07,24,15,49,22.90
2009,07,24,15,50,23.00
2009,07,24,15,51,23.00
2009,07,24,15,52,23.10
2009,07,24,15,53,23.10
2009,07,24,15,54,23.10
2009,07,24,15,55,23.00
2009,07,24,15,56,22.90
2009,07,24,15,57,22.80
2009,07,24,15,58,22.80
2009,07,24,15,59,22.80
2009,07,24,16,00,22.80
2009,07,24,16,01,22.90
2009,07,24,16,02,22.90
2009,07,24,16,03,22.90
2009,07,24,16,04,22.90
2009,07,24,16,05,22.90
2009,07,24,16,06,22.80
2009,07,24,16,07,22.90
2009,07,24,16,08,22.90
2009,07,24,16,09,22.90
2009,07,24,16,10,22.90
2009,07,24,16,11,22.90
2009,07,24,16,12,22.90
2009,07,24,16,13,23.00
2009,07,24,16,14,23.10
2009,07,24,16,15,23.20
2009,07,24,16,16,23.30
2009,07,24,16,17,23.30
2009,07,24,16,18,23.30
2009,07,24,16,19,23.30
2009,07,24,16,20,23.40
2009,07,24,16,21,23.60
2009,07,24,16,22,23.70
2009,07,24,16,23,23.70
2009,07,24,16,24,23.70
2009,07,24,16,25,23.80
2009,07,24,16,26,23.90
2009,07,24,16,27,24.00
2009,07,24,16,28,24.10
2009,07,24,16,29,24.10
2009,07,24,16,30,24.20
2009,07,24,16,31,24.20
2009,07,24,16,32,24.20
2009,07,24,16,33,24.30
2009,07,24,16,34,24.20
2009,07,24,16,35,24.10
2009,07,24,16,36,24.10
2009,07,24,16,37,24.10
2009,07,24,16,38,24.10
2009,07,24,16,39,24.10
2009,07,24,16,40,24.10
2009,07,24,16,41,24.10
2009,07,24,16,42,24.20
2009,07,24,16,43,24.20
2009,07,24,16,44,24.30
2009,07,24,16,45,24.30
2009,07,24,16,46,24.40
2009,07,24,16,47,24.40
2009,07,24,16,48,24.50
2009,07,24,16,49,24.60
2009,07,24,16,50,24.60
2009,07,24,16,51,24.70
2009,07,24,16,52,24.60
2009,07,24,16,53,24.60
2009,07,24,16,54,24.60
2009,07,24,16,55,24.60
2009,07,24,16,56,24.60
2009,07,24,16,57,24.50
2009,07,24,16,58,24.40
2009,07,24,16,59,24.40
2009,07,24,17,00,24.40
2009,07,24,17,01,24.40
2009,07,24,17,02,24.40
2009,07,24,17,03,24.40
2009,07,24,17,04,24.30
2009,07,24,17,05,24.30
2009,07,24,17,06,24.30
2009,07,24,17,07,24.30
2009,07,24,17,08,24.30
2009,07,24,17,09,24.20
2009,07,24,17,10,24.10
2009,07,24,17,11,24.00
2009,07,24,17,12,24.00
2009,07,24,17,13,23.90
2009,07,24,17,14,23.90
2009,07,24,17,15,23.90
2009,07,24,17,16,23.90
2009,07,24,17,17,24.00
2009,07,24,17,18,24.00
2009,07,24,17,19,24.00